Location: French Creek State Gamelands
(40.1750°N, 75.7969°W)
Time: 22:12:04
(UTC-04:00)

ISS - All Passes

Search period start: 21 September 2014 00:00
Search period end: 01 October 2014 00:00
Orbit: 413 x 417 km, 51.6° (Epoch: 21 September)

Date Brightness Start Highest point End Pass type
(mag) Time Alt. Az. Time Alt. Az. Time Alt. Az.
21 Sep - 02:25:42 10° SW 02:28:59 65° SE 02:32:18 10° ENE night (unlit)
21 Sep - 04:03:19 10° WNW 04:05:57 21° NNW 04:08:36 10° NNE visible
21 Sep - 05:42:24 10° NNW 05:43:39 12° N 05:44:54 10° NNE visible
21 Sep - 07:19:04 10° NNW 07:21:25 18° NNE 07:23:45 10° ENE daylight
21 Sep - 08:55:13 10° NW 08:58:33 81° NE 09:01:52 10° SE daylight
21 Sep - 10:34:05 10° WSW 10:34:47 11° SW 10:35:28 10° SW daylight
22 Sep - 01:37:07 10° SSW 01:40:11 35° SE 01:43:15 10° ENE night (unlit)
22 Sep - 03:13:56 10° W 03:16:55 29° NNW 03:19:54 10° NE visible
22 Sep - 04:52:58 10° NW 04:54:27 12° N 04:55:57 10° NNE visible
22 Sep - 06:30:21 10° NNW 06:32:16 14° NNE 06:34:11 10° NE daylight
22 Sep - 08:06:23 10° NW 08:09:37 47° NNE 08:12:50 10° ESE daylight
22 Sep - 09:43:40 10° W 09:46:05 19° SW 09:48:30 10° S daylight
23 Sep - 00:48:55 10° S 00:51:24 20° SE 00:53:54 10° E night (unlit)
23 Sep - 02:24:41 10° WSW 02:27:53 45° NNW 02:31:07 10° NE night (unlit)
23 Sep - 04:03:21 10° NW 04:05:15 14° NNW 04:07:08 10° NNE visible
23 Sep - 05:41:33 10° NNW 05:43:04 12° N 05:44:35 10° NE visible
23 Sep - 07:17:36 10° NW 07:20:36 30° NNE 07:23:35 10° E daylight
23 Sep - 08:54:16 10° WNW 08:57:18 33° SW 09:00:20 10° SSE daylight
24 Sep - 00:01:41 10° SE 00:02:39 11° SE 00:03:37 10° ESE night (unlit)
24 Sep - 01:35:34 10° SW 01:38:54 78° NW 01:42:14 10° NE night (unlit)
24 Sep - 03:13:43 10° WNW 03:16:02 17° NNW 03:18:22 10° NNE visible
24 Sep - 04:52:33 10° NNW 04:53:48 12° N 04:55:03 10° NNE visible
24 Sep - 06:28:49 10° NNW 06:31:28 22° NNE 06:34:08 10° ENE daylight
24 Sep - 08:05:08 10° WNW 08:08:25 63° SW 08:11:42 10° SE daylight
25 Sep - 00:46:40 10° SW 00:49:56 57° SE 00:53:12 10° ENE night (unlit)
25 Sep - 02:24:07 10° WNW 02:26:50 23° NNW 02:29:34 10° NNE night (unlit)
25 Sep - 04:03:13 10° NNW 04:04:29 12° N 04:05:46 10° NNE visible
25 Sep - 05:40:00 10° NNW 05:42:16 17° NNE 05:44:31 10° ENE visible
25 Sep - 07:16:07 10° NW 07:19:26 72° NE 07:22:45 10° ESE daylight
25 Sep - 08:54:21 10° WSW 08:55:43 12° SW 08:57:04 10° SSW daylight
25 Sep - 23:58:01 10° SSW 00:01:00 31° SE 00:03:58 10° ENE night (unlit)
26 Sep - 01:34:37 10° W 01:37:40 32° NNW 01:40:42 10° NE night (unlit)
26 Sep - 03:13:35 10° NW 03:15:09 13° N 03:16:44 10° NNE visible
26 Sep - 04:51:09 10° NNW 04:52:58 14° NNE 04:54:47 10° NE visible
26 Sep - 06:27:10 10° NW 06:30:21 42° NNE 06:33:32 10° ESE visible
26 Sep - 08:04:16 10° W 08:06:52 21° SW 08:09:28 10° S daylight
26 Sep - 23:09:48 10° S 23:12:05 17° SE 23:14:22 10° E night (unlit)
27 Sep - 00:45:15 10° WSW 00:48:30 51° NNW 00:51:46 10° NE night (unlit)
27 Sep - 02:23:49 10° NW 02:25:48 15° NNW 02:27:48 10° NNE night (unlit)
27 Sep - 04:02:10 10° NNW 04:03:37 12° N 04:05:03 10° NNE visible
27 Sep - 05:38:14 10° NW 05:41:10 28° NNE 05:44:05 10° E visible
27 Sep - 07:14:48 10° WNW 07:17:55 38° SW 07:21:02 10° SSE daylight
27 Sep - 23:56:03 10° SW 23:59:23 89° NW 00:02:43 10° NE night (unlit)
28 Sep - 01:34:03 10° WNW 01:36:28 18° NNW 01:38:53 10° NNE night (unlit)
28 Sep - 03:12:58 10° NNW 03:14:12 12° N 03:15:26 10° NNE visible
28 Sep - 04:49:19 10° NNW 04:51:53 20° NNE 04:54:27 10° ENE visible
28 Sep - 06:25:34 10° WNW 06:28:53 73° SW 06:32:11 10° SE visible
28 Sep - 23:07:04 10° SW 23:10:17 49° SE 23:13:31 10° ENE night (unlit)
29 Sep - 00:44:20 10° W 00:47:08 24° NNW 00:49:56 10° NNE night (unlit)
29 Sep - 02:23:25 10° NNW 02:24:44 12° N 02:26:04 10° NNE night (unlit)
29 Sep - 04:00:22 10° NNW 04:02:31 16° NNE 04:04:40 10° ENE visible
29 Sep - 05:36:26 10° NW 05:39:44 63° NE 05:43:02 10° ESE visible
29 Sep - 07:14:16 10° W 07:16:04 14° SW 07:17:51 10° SSW daylight
29 Sep - 22:18:23 10° SSW 22:21:13 27° SE 22:24:05 10° ENE night (unlit)
29 Sep - 23:54:43 10° W 23:57:49 35° NNW 00:00:56 10° NE night (unlit)
30 Sep - 01:33:36 10° NW 01:35:16 13° N 01:36:56 10° NNE night (unlit)
30 Sep - 03:11:21 10° NNW 03:13:04 13° N 03:14:48 10° NE night (unlit)
30 Sep - 04:47:21 10° NW 04:50:29 37° NNE 04:53:37 10° E visible
30 Sep - 06:24:17 10° WNW 06:27:03 25° SW 06:29:49 10° S visible
30 Sep - 21:30:12 10° SSE 21:32:11 15° SE 21:34:11 10° E night (unlit)
30 Sep - 23:05:15 10° WSW 23:08:32 58° NW 23:11:50 10° NE night (unlit)
